This is the latest recevied weather packets stored in our database for station/object W4KAB. If no packets are shown the sender has not sent any weather packets the latest 10 day(s).
| Time | Temp. | Humidity | Pressure | Rain* | Wind** | Luminosity | Snow |
|---|---|---|---|---|---|---|---|
| 1777969496 | 11.67° C | 76% | 1016.1 hPa | 0 mm | - | 0 W/m² | - |
| 1777969193 | 12.22° C | 76% | 1016.3 hPa | 0 mm | - | 0 W/m² | - |
| 1777968890 | 12.22° C | 74% | 1015.9 hPa | 0 mm | - | 0 W/m² | - |
| 1777968587 | 12.22° C | 75% | 1016 hPa | 0 mm | - | 0 W/m² | - |
| 1777968283 | 12.22° C | 73% | 1016.2 hPa | 0 mm | - | 0 W/m² | - |
| 1777967978 | 11.67° C | 75% | 1016.2 hPa | 0 mm | - | 0 W/m² | - |
| 1777967675 | 11.67° C | 75% | 1015.9 hPa | 0 mm | - | 0 W/m² | - |
| 1777967373 | 11.67° C | 75% | 1016.1 hPa | 0 mm | - | 0 W/m² | - |
| 1777967070 | 11.67° C | 74% | 1016 hPa | 0 mm | - | 0 W/m² | - |
| 1777966767 | 12.22° C | 74% | 1015.7 hPa | 0 mm | - | 0 W/m² | - |
| 1777966465 | 12.22° C | 73% | 1015.6 hPa | 0 mm | - | 0 W/m² | - |
| 1777966161 | 12.22° C | 72% | 1015.7 hPa | 0 mm | - | 0 W/m² | - |
| 1777965858 | 12.78° C | 72% | 1015.4 hPa | 0 mm | - | 0 W/m² | - |
| 1777965554 | 12.78° C | 71% | 1015.7 hPa | 0 mm | - | 0 W/m² | - |
| 1777965250 | 12.78° C | 71% | 1015.7 hPa | 0 mm | - | 0 W/m² | - |
| 1777964949 | 12.78° C | 70% | 1015.8 hPa | 0 mm | - | 0 W/m² | - |
| 1777964644 | 12.78° C | 71% | 1015.7 hPa | 0 mm | - | 0 W/m² | - |
| 1777964340 | 12.78° C | 71% | 1015.5 hPa | 0 mm | - | 0 W/m² | - |
| 1777964037 | 12.78° C | 70% | 1015.5 hPa | 0 mm | - | 0 W/m² | - |
| 1777963734 | 13.33° C | 70% | 1015.7 hPa | 0 mm | - | 0 W/m² | - |
| 1777963431 | 13.33° C | 67% | 1015.6 hPa | 0 mm | - | 0 W/m² | - |
| 1777963130 | 13.33° C | 67% | 1015.7 hPa | 0 mm | - | 0 W/m² | - |
| 1777962825 | 13.33° C | 68% | 1015.6 hPa | 0 mm | - | 0 W/m² | - |
| 1777962522 | 13.33° C | 68% | 1015.8 hPa | 0 mm | - | 0 W/m² | - |
| 1777962219 | 13.89° C | 67% | 1015.6 hPa | 0 mm | - | 0 W/m² | - |
* Rain latest hour (hover to see other rain measurements)
** Current wind speed in m/s (hover to see current wind gust speed)